Regional Weather Roundup
Issued by NWS Portland, ME

Current Version | Previous Version | Text Only | Print | Product List | Glossary Off
Versions: 1 2 3 4 5 6 7 8 9 10 11 12 13 14 15 16 17 18 19 20 21 22 23 24 25 26 27 28 29 30 31 32 33 34 35 36 37 38 39 40 41 42 43 44 45 46 47 48 49 50
000 ASUS41 KGYX 221610 RWRGYX WEATHER ROUNDUP FOR MAINE AND NEW HAMPSHIRE NATIONAL WEATHER SERVICE GRAY ME 1200 PM EDT MON OCT 22 2018 MEZ002-005-006-010-012-015-018-020-021-024-026-027-029-221700- MAINE CITY SKY/WX TMP DP RH WIND PRES REMARKS PORTLAND FAIR 45 21 38 NW9 30.13S SANFORD FAIR 44 20 38 W10G18 30.13S BAR HARBOR FAIR 41 19 41 W9G17 30.09S WISCASSET FAIR 42 20 41 W9 30.12F ROCKLAND FAIR 42 21 43 W16G22 30.10F FRYEBURG FAIR 43 15 32 SW12G17 30.11S LEWISTONAUBURN FAIR 42 20 41 VRB7 30.11F AUGUSTA FAIR 39 17 41 W9G17 30.10F WATERVILLE FAIR 42 20 41 SW9 30.06F BANGOR PTSUNNY 40 17 39 NW8G26 30.08R GREENVILLE N/A 32 16 51 NW8G22 29.99R MILLINOCKET FAIR 38 16 40 W9G26 30.03S HOULTON PTSUNNY 34 18 52 W10G17 29.97S PRESQUE ISLE CLOUDY 36 16 44 W16G26 29.96R FRENCHVILLE CLOUDY 34 16 47 W16G22 29.91R CARIBOU CLOUDY 36 16 44 W9G21 29.94R $$ NHZ002-005-008-009-011-012-014-221700- NEW HAMPSHIRE CITY SKY/WX TMP DP RH WIND PRES REMARKS PORTSMOUTH MOSUNNY 45 19 35 NW18 30.12F ROCHESTER FAIR 44 21 40 NW9 30.13S NASHUA FAIR 46 24 42 NW6 30.15F MANCHESTER FAIR 46 21 37 W8 30.14F CONCORD FAIR 45 22 40 NW13G21 30.14F LACONIA FAIR 42 19 39 W9G20 30.13F PLYMOUTH FAIR 42 20 41 W9 30.13F BERLIN FAIR 37 18 46 W10G17 30.09R WHITEFIELD PTSUNNY 39 19 44 W12 30.10S JAFFREY FAIR 43 25 49 W10 30.13F KEENE CLOUDY 45 26 47 SW12 30.15F LEBANON CLOUDY 44 23 43 N5 30.13F MT WASHINGTON SNOW 10 10 100 W38G47 N/A VSB 1/16WCI -14 $$ VTZ005-007-008-221700- VERMONT CITY SKY/WX TMP DP RH WIND PRES REMARKS ST JOHNSBURY N/A 38 19 46 MISG 30.11S MONTPELIER CLOUDY 36 21 54 VRB3 30.15S BURLINGTON PTSUNNY 40 21 46 SW3 30.14S $$ MAZ007-012-024-CTZ003-RIZ002-NYZ038-NYZ072-221700- SOUTHERN NEW ENGLAND AND NY CITY SKY/WX TMP DP RH WIND PRES REMARKS BOSTON FAIR 49 25 39 W14G22 30.16F WORCESTER FAIR 44 27 51 W14G20 30.15S NANTUCKET FAIR 47 27 45 NW14 30.21F PROVIDENCE FAIR 48 29 47 W14 30.20F HARTFORD PTSUNNY 45 29 53 SW6 30.20F ALBANY PTSUNNY 46 32 58 S6 30.19S NEW YORK CITY PTSUNNY 50 31 48 SW12 30.24F $$ ANZ081-ANZ082-ANZ150-NHZ014-MEZ023>029-221700- COASTAL MARINE OBSERVATIONS STATION/POSITION TIME TEMP WIND PRES WAVE AIR SEA DIR/SP/G HT/PER (UTC) (F) (DEG/KT/KT) (MB) (FT/S) MOUNT DESERT ROC 1600 39 260/ 15/ 17 1019.2F MATINICUS ROCK 1500 40 290/ 15/ 18 1019.4R ISLE OF SHOALS 1500 40 290/ 16/ 18 1020.4F JEFFREYS LEDGE 1536 54 N/A 3/ 4 $$ .............KEY.............. WCI - WIND CHILL TC - TEMPERATURE IN CELSIUS VSB - VISIBILITY IN MILES HX - HEAT INDEX FAIR- INDICATES FEW OR NO CLOUDS BELOW 12,000 FT, WITH NO SIGNIFICANT WEATHER AND/OR OBSTRUCTIONS TO VISIBILITY.

USA.gov is the U.S. government's official web portal to all federal, state and local government web resources and services.